Location: Nairn
(57.5833°N, 3.8667°W)
Time: 21:52:17
(UTC+00:00)

Tiros 1 - Pass Details

Date: 30 September 2022
Orbit: 629 x 662 km, 48.4° (Epoch: 08 December)

Event Time Altitude Azimuth Distance (km) Brightness Sun altitude
Exits shadow 03:43:30 27° 179° (S) 1,247 8.3 -20.6°
Drops below altitude 10° 03:47:20 10° 125° (SE) 2,049 10.0 -20.2°
Sets 03:49:55 0° 113° (ESE) 2,953 11.1 -19.9°
